• în România
  • Lista ţărilor
  • Pe 7 zile
  • Temperatura apei
  • Hartă satelitară
  • Meteo pe hartă
  • Widget-uri
  • user-avatar
    Intrare

    Meteo pe oră la Vlorë

    Astăzi, 26 Mai, Sâmbătă

    Timp Temperatura Precipitaţii Vânt Presiune Umiditate
    00:00 +21°C° 0 mm 4 m/s 760 mmHg 76%
    01:00 +20°C° 0 mm 4 m/s 760 mmHg 77%
    02:00 +20°C° 0 mm 4 m/s 760 mmHg 76%
    03:00 +20°C° 0 mm 4 m/s 761 mmHg 75%
    04:00 +20°C° 0 mm 4 m/s 761 mmHg 73%
    05:00 +22°C° 0 mm 3 m/s 761 mmHg 70%
    06:00 +24°C° 0 mm 3 m/s 761 mmHg 67%
    07:00 +27°C° 0 mm 3 m/s 761 mmHg 61%
    08:00 +28°C° 0 mm 3 m/s 761 mmHg 56%
    09:00 +29°C° 0 mm 3 m/s 762 mmHg 51%
    10:00 +30°C° 0 mm 3 m/s 762 mmHg 46%
    11:00 +32°C° 0 mm 4 m/s 762 mmHg 46%
    12:00 +32°C° 0 mm 4 m/s 762 mmHg 45%
    13:00 +32°C° 0 mm 5 m/s 762 mmHg 45%
    14:00 +32°C° 0 mm 5 m/s 761 mmHg 47%
    15:00 +32°C° 0 mm 6 m/s 761 mmHg 49%
    16:00 +30°C° 0 mm 6 m/s 761 mmHg 51%
    17:00 +29°C° 0 mm 5 m/s 761 mmHg 57%
    18:00 +27°C° 0 mm 5 m/s 761 mmHg 63%
    19:00 +25°C° 0 mm 5 m/s 761 mmHg 70%
    20:00 +25°C° 0 mm 5 m/s 762 mmHg 70%
    21:00 +23°C° 0 mm 4 m/s 762 mmHg 70%
    22:00 +23°C° 0 mm 4 m/s 762 mmHg 71%
    23:00 +22°C° 0 mm 4 m/s 762 mmHg 70%

    Mâine, 27 Mai, Duminică

    Timp Temperatura Precipitaţii Vânt Presiune Umiditate
    00:00 +22°C° 0 mm 4 m/s 762 mmHg 69%
    01:00 +22°C° 0 mm 4 m/s 762 mmHg 68%
    02:00 +22°C° 0 mm 4 m/s 762 mmHg 67%
    03:00 +21°C° 0 mm 4 m/s 762 mmHg 66%
    04:00 +21°C° 0 mm 4 m/s 762 mmHg 65%
    05:00 +24°C° 0 mm 3 m/s 762 mmHg 64%
    06:00 +25°C° 0 mm 3 m/s 762 mmHg 62%
    07:00 +27°C° 0 mm 3 m/s 762 mmHg 60%
    08:00 +28°C° 0 mm 3 m/s 762 mmHg 55%
    09:00 +29°C° 0 mm 3 m/s 762 mmHg 50%
    10:00 +32°C° 0 mm 4 m/s 763 mmHg 45%
    11:00 +32°C° 0 mm 4 m/s 762 mmHg 45%
    12:00 +32°C° 0 mm 5 m/s 762 mmHg 46%
    13:00 +33°C° 0 mm 5 m/s 762 mmHg 46%
    14:00 +32°C° 0 mm 5 m/s 762 mmHg 48%
    15:00 +32°C° 0 mm 5 m/s 762 mmHg 51%
    16:00 +32°C° 0 mm 5 m/s 761 mmHg 54%
    17:00 +29°C° 0 mm 5 m/s 761 mmHg 61%
    18:00 +27°C° 0 mm 4 m/s 762 mmHg 69%
    19:00 +25°C° 0 mm 4 m/s 762 mmHg 76%
    20:00 +25°C° 0 mm 4 m/s 762 mmHg 76%
    21:00 +24°C° 0 mm 3 m/s 762 mmHg 77%
    22:00 +24°C° 0 mm 3 m/s 762 mmHg 78%
    23:00 +22°C° 0 mm 3 m/s 762 mmHg 76%

    Poimâine, 28 Mai, Luni

    Timp Temperatura Precipitaţii Vânt Presiune Umiditate
    00:00 +22°C° 0 mm 3 m/s 762 mmHg 75%
    01:00 +22°C° 0 mm 3 m/s 762 mmHg 74%
    02:00 +22°C° 0 mm 3 m/s 762 mmHg 73%
    03:00 +22°C° 0 mm 3 m/s 762 mmHg 72%
    04:00 +22°C° 0 mm 3 m/s 762 mmHg 72%
    05:00 +24°C° 0 mm 3 m/s 762 mmHg 69%
    06:00 +25°C° 0 mm 2 m/s 762 mmHg 65%
    07:00 +27°C° 0 mm 2 m/s 762 mmHg 62%
    08:00 +28°C° 0 mm 2 m/s 763 mmHg 58%
    09:00 +29°C° 0 mm 3 m/s 763 mmHg 55%
    10:00 +30°C° 0 mm 3 m/s 763 mmHg 52%
    11:00 +32°C° 0 mm 4 m/s 762 mmHg 53%
    12:00 +32°C° 0 mm 4 m/s 762 mmHg 54%
    13:00 +32°C° 0 mm 4 m/s 762 mmHg 55%
    14:00 +32°C° 0,1 mm 4 m/s 762 mmHg 57%
    15:00 +30°C° 0,1 mm 4 m/s 762 mmHg 58%
    16:00 +30°C° 0,1 mm 4 m/s 761 mmHg 60%
    17:00 +29°C° 0,1 mm 4 m/s 761 mmHg 65%
    18:00 +27°C° 0,1 mm 4 m/s 761 mmHg 71%
    19:00 +26°C° 0,1 mm 3 m/s 762 mmHg 76%
    20:00 +25°C° 0 mm 3 m/s 762 mmHg 77%
    21:00 +24°C° 0 mm 3 m/s 762 mmHg 77%
    22:00 +24°C° 0 mm 3 m/s 762 mmHg 78%
    23:00 +24°C° 0 mm 3 m/s 762 mmHg 78%

    29 Mai, Marţi

    Timp Temperatura Precipitaţii Vânt Presiune Umiditate
    00:00 +22°C° 0 mm 3 m/s 762 mmHg 77%
    01:00 +22°C° 0 mm 3 m/s 762 mmHg 77%
    02:00 +22°C° 0 mm 3 m/s 762 mmHg 77%
    03:00 +22°C° 0 mm 3 m/s 762 mmHg 76%
    04:00 +21°C° 0 mm 3 m/s 762 mmHg 76%
    05:00 +24°C° 0 mm 2 m/s 762 mmHg 72%
    06:00 +25°C° 0 mm 2 m/s 762 mmHg 69%
    07:00 +27°C° 0 mm 2 m/s 762 mmHg 65%
    08:00 +28°C° 0 mm 2 m/s 762 mmHg 62%
    09:00 +29°C° 0 mm 2 m/s 762 mmHg 59%
    10:00 +30°C° 0 mm 1 m/s 762 mmHg 56%
    11:00 +30°C° 0 mm 2 m/s 761 mmHg 56%
    12:00 +30°C° 0 mm 2 m/s 761 mmHg 56%
    13:00 +31°C° 0 mm 2 m/s 761 mmHg 56%
    14:00 +30°C° 0,2 mm 2 m/s 761 mmHg 59%
    15:00 +30°C° 0,2 mm 2 m/s 760 mmHg 62%
    16:00 +29°C° 0,2 mm 2 m/s 760 mmHg 65%
    17:00 +28°C° 0,1 mm 2 m/s 760 mmHg 70%
    18:00 +27°C° 0,1 mm 2 m/s 760 mmHg 75%
    19:00 +25°C° 0,1 mm 1 m/s 760 mmHg 79%
    20:00 +25°C° 0 mm 1 m/s 760 mmHg 80%
    21:00 +24°C° 0 mm 1 m/s 760 mmHg 80%
    22:00 +24°C° 0 mm 1 m/s 760 mmHg 80%
    23:00 +23°C° 0 mm 1 m/s 760 mmHg 80%

    30 Mai, Miercuri

    Timp Temperatura Precipitaţii Vânt Presiune Umiditate
    00:00 +23°C° 0 mm 1 m/s 760 mmHg 79%
    01:00 +23°C° 0 mm 1 m/s 760 mmHg 79%
    02:00 +23°C° 0 mm 1 m/s 760 mmHg 78%
    03:00 +22°C° 0 mm 1 m/s 760 mmHg 78%
    04:00 +22°C° 0 mm 1 m/s 760 mmHg 77%
    05:00 +24°C° 0 mm 1 m/s 760 mmHg 74%
    06:00 +25°C° 0 mm 1 m/s 760 mmHg 70%
    07:00 +26°C° 0 mm 1 m/s 760 mmHg 66%
    08:00 +27°C° 0 mm 1 m/s 760 mmHg 64%
    09:00 +28°C° 0 mm 2 m/s 760 mmHg 61%
    10:00 +29°C° 0 mm 2 m/s 760 mmHg 58%
    11:00 +30°C° 0 mm 3 m/s 760 mmHg 58%
    12:00 +30°C° 0 mm 3 m/s 760 mmHg 58%
    13:00 +30°C° 0 mm 3 m/s 760 mmHg 58%
    14:00 +30°C° 0 mm 3 m/s 759 mmHg 60%
    15:00 +30°C° 0 mm 3 m/s 759 mmHg 61%
    16:00 +30°C° 0 mm 3 m/s 759 mmHg 63%
    17:00 +28°C° 0 mm 3 m/s 759 mmHg 68%
    18:00 +27°C° 0 mm 2 m/s 759 mmHg 74%
    19:00 +25°C° 0 mm 2 m/s 759 mmHg 80%
    20:00 +25°C° 0 mm 2 m/s 759 mmHg 81%
    21:00 +24°C° 0 mm 2 m/s 759 mmHg 83%
    22:00 +23°C° 0 mm 2 m/s 760 mmHg 85%
    23:00 +23°C° 0 mm 2 m/s 759 mmHg 84%

    31 Mai, Joi

    Timp Temperatura Precipitaţii Vânt Presiune Umiditate
    00:00 +23°C° 0 mm 2 m/s 759 mmHg 83%
    01:00 +23°C° 0 mm 1 m/s 759 mmHg 83%
    02:00 +22°C° 0 mm 1 m/s 759 mmHg 82%
    03:00 +22°C° 0 mm 1 m/s 759 mmHg 82%
    04:00 +22°C° 0 mm 1 m/s 759 mmHg 82%
    05:00 +24°C° 0 mm 1 m/s 759 mmHg 76%
    06:00 +25°C° 0 mm 1 m/s 760 mmHg 70%
    07:00 +27°C° 0 mm 1 m/s 760 mmHg 63%
    08:00 +28°C° 0 mm 2 m/s 760 mmHg 59%
    09:00 +29°C° 0 mm 2 m/s 760 mmHg 55%
    10:00 +30°C° 0 mm 2 m/s 760 mmHg 51%
    11:00 +30°C° 0 mm 3 m/s 760 mmHg 51%
    12:00 +31°C° 0 mm 3 m/s 759 mmHg 50%
    13:00 +31°C° 0 mm 3 m/s 759 mmHg 50%
    14:00 +31°C° 0 mm 3 m/s 759 mmHg 51%
    15:00 +31°C° 0 mm 3 m/s 759 mmHg 53%
    16:00 +30°C° 0 mm 3 m/s 759 mmHg 55%
    17:00 +29°C° 0 mm 2 m/s 759 mmHg 61%
    18:00 +27°C° 0 mm 2 m/s 759 mmHg 66%
    19:00 +25°C° 0 mm 1 m/s 760 mmHg 72%
    20:00 +25°C° 0 mm 1 m/s 760 mmHg 73%
    21:00 +24°C° 0 mm 1 m/s 760 mmHg 74%
    22:00 +23°C° 0 mm 1 m/s 760 mmHg 75%
    23:00 +23°C° 0 mm 2 m/s 760 mmHg 74%
    Arată mai mult